QPF
0.00 0.00 0.00 0.00 0.14 0.14 0.05 0.00 0.00 0.00 0.00 0.00 0.00 0.01 0.00 0.01 0.08 0.16 0.04 0.00 0.00 0.00 0.00 0.00 0.00 0.01 0.02 0.02 0.01 0.00 0.00 0.00 0.00 0.00 0.00 0.00 0.00 0.00 0.00 0.00 0.00 0.01 0.01 0.00 0.00 0.00 0.00 0.00 0.00
0.00 0.00 0.00 0.00 0.06 0.09 0.06 0.00 0.00 0.00 0.00 0.00 0.00 0.00 0.00 0.00 0.00 0.01 0.01 0.00 0.00 0.00 0.00 0.00 0.01 0.04 0.03 0.03 0.02 0.01 0.00 0.00 0.00 0.02 0.03 0.01 0.00 0.00 0.00 0.00 0.00 0.00 0.00 0.00 0.02 0.02 0.00 0.01 0.00
0.00 0.00 0.05 0.06 0.09 0.07 0.07 0.01 0.00 0.00 0.00 0.00 0.00 0.00 0.00 0.00 0.00 0.00 0.00 0.00 0.00 0.00 0.00 0.00 0.01 0.03 0.01 0.02 0.03 0.07 0.09 0.10 0.04 0.01 0.03 0.03 0.01 0.01 0.02 0.03 0.04 0.02 0.00 0.00 0.01 0.01 0.00 0.03 0.00
0.00 0.02 0.04 0.04 0.03 0.06 0.02 0.01 0.00 0.00 0.00 0.00 0.00 0.00 0.00 0.00 0.00 0.00 0.00 0.00 0.00 0.00 0.00 0.00 0.00 0.01 0.01 0.02 0.02 0.02 0.04 0.05 0.14 0.03 0.00 0.00 0.00 0.01 0.04 0.06 0.15 0.13 0.02 0.00 0.02 0.06 0.08 0.07 0.00
0.00 0.10 0.06 0.01 0.00 0.01 0.01 0.00 0.00 0.00 0.00 0.00 0.00 0.01 0.01 0.00 0.00 0.00 0.00 0.00 0.00 0.00 0.00 0.00 0.00 0.00 0.00 0.00 0.01 0.00 0.00 0.02 0.06 0.04 0.00 0.00 0.00 0.00 0.00 0.05 0.14 0.12 0.06 0.01 0.05 0.03 0.03 0.05 0.00
0.01 0.01 0.00 0.00 0.00 0.00 0.00 0.00 0.00 0.00 0.00 0.00 0.00 0.01 0.00 0.00 0.00 0.00 0.00 0.00 0.00 0.00 0.00 0.00 0.00 0.00 0.00 0.00 0.01 0.00 0.00 0.02 0.03 0.00 0.00 0.00 0.00 0.00 0.00 0.01 0.07 0.08 0.04 0.05 0.01 0.00 0.01 0.02 0.03
0.00 0.00 0.00 0.00 0.00 0.00 0.00 0.00 0.00 0.01 0.01 0.00 0.00 0.01 0.03 0.01 0.00 0.00 0.00 0.00 0.00 0.00 0.00 0.00 0.00 0.00 0.00 0.00 0.00 0.00 0.00 0.01 0.00 0.00 0.03 0.01 0.00 0.00 0.01 0.00 0.00 0.02 0.03 0.05 0.02 0.00 0.00 0.00 0.02
0.01 0.04 0.01 0.00 0.00 0.00 0.00 0.00 0.00 0.00 0.00 0.01 0.00 0.02 0.09 0.03 0.01 0.01 0.00 0.00 0.00 0.00 0.00 0.00 0.00 0.00 0.00 0.00 0.00 0.00 0.00 0.00 0.00 0.00 0.00 0.00 0.00 0.03 0.00 0.00 0.01 0.00 0.02 0.01 0.00 0.00 0.00 0.01 0.01
0.03 0.02 0.01 0.00 0.00 0.00 0.00 0.00 0.00 0.00 0.00 0.00 0.01 0.04 0.05 0.01 0.02 0.00 0.00 0.00 0.00 0.03 0.06 0.01 0.00 0.00 0.00 0.00 0.00 0.00 0.00 0.00 0.00 0.01 0.00 0.00 0.01 0.03 0.00 0.00 0.02 0.00 0.01 0.00 0.00 0.00 0.00 0.05 0.07
0.01 0.01 0.00 0.00 0.00 0.00 0.01 0.00 0.00 0.00 0.00 0.01 0.00 0.01 0.03 0.00 0.00 0.00 0.00 0.00 0.01 0.02 0.08 0.04 0.02 0.02 0.00 0.00 0.00 0.00 0.00 0.00 0.00 0.00 0.00 0.00 0.00 0.04 0.04 0.00 0.00 0.00 0.00 0.00 0.00 0.00 0.01 0.03 0.06
0.00 0.00 0.00 0.00 0.00 0.00 0.00 0.00 0.00 0.00 0.01 0.01 0.03 0.07 0.02 0.00 0.01 0.00 0.00 0.00 0.00 0.00 0.00 0.06 0.04 0.08 0.01 0.00 0.00 0.01 0.00 0.00 0.00 0.00 0.00 0.00 0.00 0.02 0.03 0.02 0.00 0.00 0.00 0.00 0.01 0.04 0.03 0.01 0.04
0.00 0.00 0.00 0.00 0.00 0.00 0.00 0.00 0.00 0.00 0.00 0.00 0.02 0.03 0.03 0.01 0.01 0.00 0.00 0.00 0.00 0.00 0.01 0.00 0.04 0.09 0.10 0.06 0.07 0.00 0.00 0.00 0.00 0.00 0.00 0.00 0.00 0.00 0.03 0.03 0.01 0.00 0.00 0.06 0.07 0.14 0.08 0.01 0.00
0.00 0.00 0.00 0.00 0.00 0.00 0.00 0.00 0.00 0.00 0.00 0.00 0.01 0.01 0.01 0.01 0.02 0.00 0.00 0.00 0.00 0.01 0.00 0.01 0.00 0.08 0.19 0.17 0.16 0.09 0.00 0.00 0.00 0.00 0.00 0.00 0.00 0.01 0.01 0.01 0.00 0.00 0.00 0.09 0.10 0.07 0.04 0.00 0.00
0.00 0.00 0.00 0.00 0.00 0.00 0.00 0.00 0.00 0.00 0.00 0.00 0.00 0.00 0.00 0.00 0.01 0.00 0.00 0.00 0.00 0.00 0.00 0.02 0.03 0.00 0.08 0.10 0.10 0.09 0.05 0.02 0.02 0.03 0.02 0.00 0.01 0.01 0.00 0.00 0.00 0.00 0.00 0.09 0.07 0.02 0.01 0.00 0.00
0.00 0.00 0.00 0.00 0.00 0.00 0.00 0.01 0.03 0.00 0.00 0.00 0.00 0.00 0.01 0.00 0.00 0.00 0.00 0.00 0.00 0.00 0.00 0.00 0.00 0.00 0.02 0.04 0.05 0.10 0.11 0.01 0.03 0.08 0.07 0.03 0.03 0.00 0.01 0.00 0.00 0.00 0.00 0.02 0.02 0.08 0.05 0.01 0.00
0.00 0.00 0.00 0.00 0.00 0.00 0.00 0.01 0.00 0.00 0.00 0.00 0.02 0.02 0.00 0.00 0.00 0.00 0.00 0.00 0.00 0.00 0.00 0.00 0.00 0.00 0.00 0.02 0.08 0.10 0.17 0.02 0.06 0.14 0.13 0.07 0.02 0.00 0.00 0.00 0.00 0.00 0.01 0.04 0.02 0.04 0.03 0.09 0.05
0.00 0.00 0.00 0.00 0.00 0.00 0.00 0.00 0.00 0.00 0.00 0.00 0.00 0.00 0.00 0.00 0.00 0.00 0.00 0.00 0.00 0.00 0.00 0.00 0.00 0.00 0.02 0.08 0.14 0.19 0.10 0.06 0.03 0.11 0.13 0.12 0.01 0.00 0.00 0.00 0.02 0.00 0.01 0.04 0.03 0.01 0.02 0.07 0.16
0.00 0.00 0.00 0.00 0.00 0.00 0.00 0.00 0.00 0.00 0.00 0.00 0.00 0.00 0.00 0.01 0.00 0.00 0.00 0.00 0.00 0.00 0.00 0.00 0.00 0.01 0.09 0.18 0.16 0.25 0.13 0.03 0.03 0.07 0.06 0.09 0.01 0.00 0.00 0.02 0.05 0.01 0.01 0.02 0.03 0.00 0.01 0.10 0.06
0.00 0.00 0.00 0.00 0.00 0.00 0.00 0.00 0.00 0.00 0.00 0.00 0.00 0.03 0.01 0.03 0.01 0.00 0.00 0.00 0.00 0.00 0.00 0.00 0.00 0.05 0.07 0.11 0.15 0.13 0.03 0.01 0.03 0.02 0.01 0.03 0.00 0.00 0.00 0.05 0.02 0.00 0.02 0.05 0.01 0.02 0.13 0.08 0.01
0.00 0.00 0.00 0.00 0.00 0.00 0.00 0.00 0.01 0.00 0.00 0.00 0.01 0.08 0.08 0.02 0.00 0.00 0.00 0.00 0.00 0.00 0.00 0.00 0.00 0.04 0.12 0.19 0.30 0.10 0.03 0.03 0.00 0.00 0.01 0.00 0.03 0.01 0.01 0.09 0.05 0.01 0.03 0.04 0.02 0.04 0.12 0.07 0.00
0.00 0.00 0.00 0.00 0.00 0.00 0.00 0.02 0.09 0.03 0.00 0.00 0.00 0.02 0.04 0.02 0.00 0.00 0.00 0.00 0.00 0.00 0.00 0.00 0.00 0.04 0.12 0.20 0.26 0.13 0.02 0.02 0.03 0.05 0.01 0.01 0.01 0.00 0.01 0.03 0.05 0.01 0.02 0.03 0.02 0.02 0.09 0.11 0.02
0.00 0.00 0.00 0.00 0.00 0.00 0.00 0.01 0.08 0.06 0.00 0.00 0.00 0.00 0.01 0.00 0.00 0.00 0.00 0.00 0.00 0.00 0.00 0.00 0.00 0.05 0.07 0.10 0.14 0.11 0.03 0.01 0.01 0.03 0.00 0.00 0.01 0.00 0.00 0.01 0.01 0.01 0.02 0.09 0.03 0.01 0.04 0.04 0.05
0.00 0.00 0.00 0.00 0.00 0.00 0.01 0.00 0.02 0.06 0.00 0.00 0.00 0.00 0.00 0.00 0.00 0.01 0.01 0.02 0.00 0.00 0.00 0.00 0.00 0.03 0.02 0.05 0.06 0.08 0.07 0.04 0.02 0.01 0.02 0.03 0.01 0.01 0.00 0.00 0.02 0.00 0.01 0.02 0.01 0.02 0.01 0.02 0.03
0.00 0.00 0.00 0.00 0.00 0.00 0.00 0.00 0.01 0.00 0.00 0.00 0.00 0.00 0.00 0.00 0.00 0.00 0.00 0.00 0.00 0.00 0.00 0.00 0.00 0.00 0.00 0.01 0.01 0.05 0.08 0.07 0.01 0.03 0.01 0.01 0.00 0.00 0.00 0.00 0.03 0.01 0.00 0.02 0.00 0.00 0.01 0.02 0.02
0.00 0.00 0.00 0.00 0.00 0.00 0.00 0.00 0.00 0.00 0.00 0.00 0.00 0.00 0.00 0.00 0.00 0.00 0.00 0.00 0.00 0.00 0.00 0.00 0.00 0.00 0.00 0.00 0.00 0.02 0.06 0.10 0.02 0.03 0.00 0.00 0.00 0.00 0.00 0.01 0.03 0.00 0.02 0.02 0.03 0.02 0.01 0.00 0.00
0.00 0.00 0.00 0.00 0.00 0.00 0.00 0.00 0.00 0.00 0.00 0.00 0.00 0.00 0.00 0.00 0.00 0.00 0.00 0.00 0.00 0.00 0.00 0.00 0.00 0.00 0.00 0.00 0.00 0.00 0.01 0.01 0.01 0.00 0.00 0.00 0.00 0.01 0.00 0.00 0.00 0.01 0.02 0.01 0.03 0.01 0.00 0.01 0.01
0.00 0.00 0.00 0.00 0.00 0.00 0.00 0.00 0.00 0.00 0.00 0.00 0.00 0.00 0.00 0.00 0.00 0.00 0.00 0.00 0.00 0.00 0.00 0.00 0.00 0.00 0.00 0.00 0.00 0.00 0.00 0.00 0.00 0.00 0.00 0.01 0.00 0.02 0.01 0.00 0.00 0.01 0.01 0.01 0.02 0.00 0.03 0.03 0.04
0.00 0.00 0.00 0.00 0.00 0.00 0.00 0.00 0.00 0.00 0.00 0.00 0.00 0.00 0.00 0.00 0.00 0.00 0.00 0.00 0.00 0.00 0.00 0.00 0.00 0.00 0.00 0.00 0.00 0.00 0.00 0.00 0.00 0.01 0.00 0.00 0.00 0.02 0.24 0.14 0.02 0.01 0.00 0.01 0.02 0.00 0.02 0.02 0.01
0.00 0.00 0.00 0.00 0.00 0.00 0.00 0.00 0.00 0.00 0.00 0.00 0.00 0.00 0.00 0.00 0.00 0.00 0.00 0.00 0.00 0.00 0.00 0.00 0.00 0.00 0.00 0.00 0.00 0.00 0.00 0.00 0.00 0.00 0.00 0.00 0.01 0.03 0.12 0.16 0.05 0.04 0.03 0.04 0.03 0.01 0.06 0.08 0.04
0.00 0.00 0.00 0.00 0.00 0.00 0.00 0.00 0.00 0.00 0.00 0.00 0.00 0.00 0.00 0.00 0.00 0.00 0.00 0.00 0.00 0.00 0.00 0.00 0.00 0.00 0.00 0.00 0.00 0.00 0.00 0.00 0.00 0.00 0.00 0.00 0.02 0.05 0.05 0.12 0.10 0.07 0.05 0.05 0.04 0.01 0.03 0.08 0.06
MSLP
1006.97 1006.79 1006.26 1005.28 1006.57 1007.02 1006.00 1003.84 1002.33 1002.83 1002.30 1002.93 1002.62 1002.70 1004.32 1005.81 1007.23 1008.28 1008.44 1007.90 1009.11 1010.56 1011.71 1012.42 1012.97 1013.48 1013.98 1014.40 1014.71 1015.10 1015.47 1015.85 1016.12 1016.34 1016.75 1016.95 1017.19 1017.39 1017.59 1017.80 1017.99 1018.23 1018.29 1018.36 1018.45 1018.49 1018.64 1018.80 1018.83
1005.89 1005.64 1005.32 1005.10 1006.70 1008.12 1005.77 1002.99 1001.98 1001.88 1001.92 1001.99 1002.05 1002.92 1003.58 1004.83 1005.42 1006.63 1007.90 1008.08 1009.18 1010.46 1011.42 1012.47 1013.18 1013.63 1013.99 1014.46 1014.85 1015.32 1015.71 1016.01 1016.39 1016.59 1016.90 1017.13 1017.36 1017.60 1017.84 1018.10 1018.24 1018.31 1018.40 1018.42 1018.50 1018.56 1018.66 1018.88 1018.97
1005.82 1004.66 1004.99 1004.97 1007.01 1007.75 1005.41 1003.32 1002.21 1001.93 1001.49 1001.88 1002.33 1002.56 1003.65 1005.02 1005.51 1006.33 1007.58 1008.23 1009.07 1010.34 1011.20 1012.74 1013.32 1013.72 1014.10 1014.44 1014.82 1015.33 1015.95 1016.35 1016.67 1016.90 1017.01 1017.22 1017.50 1017.76 1017.97 1018.10 1018.27 1018.39 1018.43 1018.53 1018.66 1018.64 1018.76 1018.93 1019.00
1004.40 1004.75 1005.09 1004.33 1005.35 1006.86 1004.76 1002.68 1001.57 1001.81 1001.64 1001.98 1002.72 1004.15 1004.54 1004.82 1004.83 1006.10 1007.71 1008.53 1009.09 1010.24 1011.54 1013.06 1013.48 1014.00 1014.34 1014.78 1015.16 1015.48 1016.03 1016.47 1016.90 1017.12 1017.09 1017.35 1017.71 1017.98 1018.22 1018.21 1018.38 1018.53 1018.48 1018.58 1018.70 1018.78 1018.86 1018.90 1018.97
1003.58 1005.16 1004.59 1005.09 1003.96 1003.56 1003.06 1001.88 1001.62 1001.77 1001.86 1002.41 1003.14 1005.22 1005.13 1005.02 1005.54 1006.53 1007.79 1008.72 1009.44 1010.55 1012.15 1013.18 1013.64 1014.11 1014.53 1014.96 1015.39 1015.45 1016.26 1016.71 1016.82 1017.15 1017.27 1017.44 1017.71 1017.95 1018.20 1018.27 1018.43 1018.63 1018.52 1018.53 1018.64 1018.65 1018.66 1018.81 1018.89
1003.12 1002.94 1004.34 1004.01 1003.84 1003.09 1002.34 1002.04 1001.60 1001.92 1002.29 1002.34 1003.61 1005.65 1005.65 1005.74 1005.86 1007.16 1008.07 1009.02 1009.90 1010.69 1012.03 1013.39 1013.99 1014.33 1014.82 1015.09 1015.52 1015.98 1016.44 1016.56 1016.80 1017.16 1017.30 1017.59 1017.74 1017.89 1018.18 1018.30 1018.36 1018.45 1018.35 1018.41 1018.35 1018.36 1018.41 1018.58 1018.73
1003.10 1004.53 1004.87 1004.24 1003.86 1002.87 1002.23 1001.67 1001.40 1002.19 1002.56 1003.24 1003.78 1006.58 1008.53 1006.65 1006.86 1007.70 1008.32 1008.96 1009.77 1010.62 1011.92 1013.34 1013.99 1014.41 1014.85 1015.22 1015.46 1015.91 1016.47 1016.83 1016.99 1017.17 1017.30 1017.64 1017.76 1017.95 1018.16 1018.23 1018.26 1018.14 1018.22 1018.34 1018.20 1018.30 1018.31 1018.40 1018.55
1004.29 1007.21 1006.42 1005.67 1003.69 1003.05 1001.65 1001.34 1001.21 1001.46 1003.36 1003.71 1004.35 1006.34 1007.23 1007.38 1007.98 1008.57 1008.84 1009.55 1010.03 1011.04 1011.99 1012.99 1013.73 1014.26 1014.85 1015.34 1015.71 1016.07 1016.35 1016.83 1016.97 1016.99 1017.35 1017.62 1017.83 1018.03 1018.03 1018.17 1018.06 1017.99 1018.03 1017.93 1017.87 1018.00 1018.11 1018.19 1018.38
1006.73 1009.55 1007.57 1003.82 1002.68 1002.02 1001.58 1000.74 1000.82 1001.50 1002.78 1003.60 1003.99 1006.22 1007.27 1007.89 1007.86 1008.97 1009.27 1009.95 1010.89 1011.34 1012.03 1012.65 1013.43 1014.01 1014.70 1015.49 1015.88 1016.13 1016.30 1016.69 1016.99 1017.01 1017.37 1017.58 1017.90 1018.05 1018.05 1017.97 1017.76 1017.67 1017.51 1017.57 1017.62 1017.69 1017.85 1018.19 1017.72
1005.15 1007.41 1004.22 1002.85 1001.89 1001.34 1001.36 1000.97 1001.03 1001.54 1002.49 1003.41 1004.40 1005.08 1006.58 1006.64 1007.48 1008.46 1009.22 1010.07 1011.08 1011.81 1012.48 1012.67 1013.29 1013.64 1014.52 1015.04 1015.34 1015.88 1016.39 1016.80 1017.20 1017.30 1017.51 1017.65 1017.87 1018.00 1018.04 1017.77 1017.50 1017.21 1017.24 1017.38 1017.74 1017.66 1017.67 1017.69 1017.32
1002.21 1003.28 1002.86 1002.20 1001.76 1001.30 1000.91 1000.73 1001.08 1001.29 1002.58 1003.82 1005.23 1005.77 1007.02 1005.73 1007.28 1008.08 1009.09 1009.71 1010.85 1011.92 1012.49 1013.01 1013.45 1013.64 1014.17 1014.55 1015.00 1015.60 1016.24 1016.91 1017.27 1017.46 1017.57 1017.65 1017.82 1017.94 1017.88 1017.79 1017.08 1016.96 1016.90 1017.38 1017.56 1017.61 1017.67 1017.23 1016.66
1001.97 1001.89 1001.90 1001.59 1001.27 1001.04 1000.71 1000.75 1000.96 1001.35 1001.93 1003.38 1004.11 1005.54 1006.17 1005.91 1006.63 1007.97 1008.84 1009.47 1010.44 1011.33 1011.99 1012.65 1013.11 1013.87 1013.78 1014.10 1014.79 1015.49 1016.24 1016.69 1017.13 1017.48 1017.57 1017.81 1017.91 1017.99 1017.72 1017.57 1017.16 1016.26 1016.19 1017.42 1017.08 1017.47 1017.61 1016.71 1015.75
1001.41 1001.63 1001.35 1000.99 1000.94 1000.82 1000.88 1000.86 1001.08 1001.11 1001.62 1002.39 1003.93 1005.48 1005.28 1005.36 1006.65 1007.04 1008.10 1009.34 1010.32 1011.24 1011.92 1012.55 1012.77 1013.64 1014.09 1014.51 1015.00 1015.40 1015.97 1016.27 1016.67 1017.26 1017.47 1017.50 1017.56 1017.43 1017.40 1016.88 1016.43 1015.58 1015.96 1017.07 1018.45 1017.35 1017.25 1016.00 1015.59
1001.80 1001.55 1001.03 1000.72 1000.59 1000.48 1000.76 1001.11 1001.65 1001.05 1001.26 1002.13 1003.40 1004.07 1004.73 1005.13 1006.29 1007.27 1008.39 1009.10 1010.37 1010.67 1011.59 1012.24 1012.72 1013.34 1013.97 1014.55 1014.79 1015.39 1015.69 1015.96 1016.46 1016.88 1017.15 1017.16 1017.16 1016.95 1016.55 1016.40 1015.58 1015.83 1015.66 1017.69 1017.66 1016.32 1016.07 1015.74 1015.77
1001.79 1001.56 1001.22 1000.62 1000.41 1000.21 1000.65 1002.85 1003.07 1000.65 1000.90 1001.62 1002.85 1003.84 1005.20 1005.23 1005.93 1007.11 1008.01 1008.71 1010.00 1010.68 1011.26 1011.89 1012.51 1013.00 1013.86 1014.22 1014.41 1014.98 1015.54 1015.59 1016.27 1016.59 1016.87 1016.86 1016.96 1016.73 1016.45 1015.97 1015.73 1016.10 1016.03 1016.51 1016.33 1016.98 1016.69 1016.46 1015.83
1001.55 1002.29 1002.28 1000.68 1000.07 999.94 1000.12 1001.61 1001.02 1000.04 1000.93 1001.36 1003.22 1005.98 1005.04 1004.90 1005.71 1006.30 1007.24 1008.21 1009.35 1010.22 1011.24 1011.89 1012.29 1012.71 1013.42 1013.85 1014.17 1014.79 1015.21 1015.29 1015.92 1016.39 1016.57 1016.70 1016.56 1016.57 1016.25 1015.82 1015.62 1015.68 1016.05 1016.64 1016.22 1016.16 1016.82 1017.26 1015.73
1002.40 1003.09 1001.35 999.84 999.53 999.52 999.81 999.83 999.10 999.73 1000.21 1000.81 1003.07 1004.47 1004.28 1004.75 1005.59 1005.94 1006.75 1007.81 1008.68 1009.59 1010.50 1011.38 1011.91 1012.56 1012.91 1013.63 1014.09 1014.64 1014.96 1015.22 1015.65 1016.08 1016.36 1016.42 1016.32 1016.19 1015.80 1015.60 1015.80 1015.44 1016.02 1016.60 1016.71 1016.50 1016.42 1016.86 1017.14
1002.45 1002.52 1001.10 999.65 999.34 999.45 999.66 999.44 999.73 999.66 1000.05 1000.71 1002.72 1003.59 1004.30 1004.54 1004.73 1005.66 1006.59 1007.18 1008.48 1009.49 1010.59 1011.16 1011.86 1012.25 1012.89 1013.77 1014.28 1014.57 1014.98 1015.05 1015.35 1015.81 1016.10 1016.24 1016.20 1015.97 1015.86 1015.76 1016.48 1015.80 1015.66 1016.48 1016.67 1015.72 1015.74 1016.86 1016.69
1001.53 1001.08 999.88 999.37 999.45 999.73 1000.25 1001.05 1000.53 999.90 1000.61 1001.32 1002.75 1003.80 1005.17 1005.15 1004.74 1004.88 1006.05 1006.82 1008.33 1009.17 1010.19 1011.01 1011.65 1012.28 1012.74 1013.34 1013.79 1014.55 1014.70 1014.91 1015.19 1015.33 1015.77 1015.96 1015.95 1015.94 1015.64 1015.97 1015.55 1015.41 1015.66 1015.66 1015.93 1016.13 1016.66 1015.89 1015.72
1000.26 999.91 999.66 999.23 999.47 1000.28 1001.66 1002.34 1003.27 1001.22 1000.95 1001.55 1003.10 1005.58 1007.36 1006.68 1005.68 1005.08 1005.75 1006.55 1007.42 1008.58 1009.34 1010.27 1010.99 1011.63 1012.30 1012.95 1013.49 1014.08 1014.13 1014.53 1014.78 1014.72 1015.20 1015.53 1015.72 1015.68 1015.56 1015.78 1015.76 1015.45 1015.72 1016.21 1016.32 1016.31 1016.97 1017.08 1015.94
999.59 999.22 999.24 999.35 1000.23 1002.01 1004.00 1005.63 1006.16 1004.80 1002.18 1001.66 1002.36 1005.07 1005.97 1006.06 1005.63 1005.06 1005.24 1005.90 1006.65 1007.76 1008.76 1009.79 1010.60 1011.39 1012.18 1012.91 1013.49 1013.89 1013.97 1014.52 1014.71 1015.03 1015.33 1015.36 1015.39 1014.99 1014.94 1015.84 1015.50 1015.42 1015.22 1015.72 1015.90 1016.32 1016.79 1016.48 1016.11
999.13 998.72 998.87 999.43 1000.04 1001.89 1003.97 1009.47 1009.23 1006.26 1002.54 1001.99 1002.39 1003.82 1004.61 1004.21 1004.90 1004.77 1004.86 1005.91 1006.09 1006.97 1008.22 1009.28 1010.17 1011.01 1012.07 1012.85 1013.34 1013.56 1013.71 1014.01 1014.20 1014.67 1014.86 1015.12 1014.73 1014.56 1014.72 1014.68 1014.88 1014.79 1015.39 1015.51 1016.35 1016.10 1016.26 1016.42 1016.19
998.54 998.31 998.61 999.13 999.98 1001.17 1005.45 1007.53 1004.97 1004.17 1001.90 1001.39 1001.60 1002.20 1003.27 1003.28 1003.82 1004.43 1006.14 1007.18 1006.30 1006.60 1007.79 1008.85 1009.92 1010.97 1011.76 1012.52 1013.09 1013.44 1013.51 1013.68 1013.86 1013.93 1014.22 1014.27 1014.29 1014.09 1014.26 1014.42 1014.67 1014.88 1014.86 1015.14 1014.86 1015.21 1015.78 1016.17 1016.14
998.62 998.61 998.63 998.81 999.28 1000.54 1001.53 1003.52 1004.66 1002.11 1001.17 1000.74 1000.73 1001.29 1002.09 1002.91 1003.15 1003.97 1005.39 1006.52 1006.26 1006.47 1007.38 1008.58 1009.77 1010.77 1011.39 1012.10 1012.69 1013.00 1013.19 1013.54 1013.74 1013.82 1013.96 1014.04 1014.11 1014.08 1013.91 1014.14 1014.46 1014.60 1014.70 1014.52 1014.31 1014.54 1015.02 1015.56 1015.35
998.41 998.38 997.97 998.37 999.16 999.68 1000.38 1001.29 1001.76 1001.09 1000.58 1000.41 1000.46 1001.25 1001.97 1002.91 1003.53 1003.75 1004.45 1005.16 1005.91 1006.95 1007.67 1008.44 1009.44 1010.40 1011.10 1011.66 1012.16 1012.54 1012.80 1013.20 1013.27 1013.33 1013.37 1013.42 1013.74 1013.95 1013.98 1014.16 1014.41 1014.62 1014.54 1014.57 1014.36 1014.36 1014.49 1014.79 1015.25
997.41 997.35 997.39 998.65 1001.85 1000.18 1000.82 1001.90 1001.44 1000.63 1000.39 1000.52 1000.62 1001.14 1001.88 1002.74 1003.39 1003.55 1004.26 1005.04 1005.91 1006.74 1007.43 1008.06 1009.05 1009.99 1010.70 1011.23 1011.71 1012.09 1012.34 1012.49 1012.59 1012.60 1013.01 1013.21 1013.10 1013.29 1013.18 1013.60 1014.07 1014.38 1014.43 1014.45 1014.55 1014.46 1014.42 1014.51 1014.69
996.64 996.72 996.68 997.18 999.63 999.78 1001.70 1003.38 1001.15 1001.06 1001.07 1001.35 1001.74 1001.92 1002.40 1002.81 1002.79 1003.11 1003.62 1004.37 1005.20 1005.97 1006.91 1007.80 1008.78 1009.54 1010.19 1010.65 1011.22 1011.72 1011.97 1011.99 1011.81 1011.90 1012.26 1012.74 1012.79 1012.97 1013.66 1013.49 1013.49 1013.76 1014.27 1014.76 1014.62 1014.62 1014.54 1014.52 1014.57
996.81 996.83 996.30 996.32 998.95 1000.57 1001.57 1002.31 1001.83 1001.39 1001.63 1001.99 1002.54 1003.03 1003.53 1003.87 1004.00 1003.96 1003.87 1003.98 1004.33 1005.02 1006.17 1007.16 1008.07 1009.00 1009.63 1009.96 1010.61 1011.15 1011.45 1011.62 1011.53 1011.65 1011.98 1012.13 1012.57 1013.17 1013.60 1013.53 1014.26 1013.67 1014.04 1014.39 1014.80 1014.66 1014.50 1014.50 1014.48
996.62 996.57 996.63 996.48 998.85 1000.04 1001.49 1000.88 1001.34 1001.54 1002.21 1002.98 1003.60 1003.98 1004.38 1004.86 1005.00 1005.03 1004.86 1004.57 1004.39 1004.29 1005.11 1006.41 1007.39 1008.27 1009.06 1009.52 1009.94 1010.40 1010.84 1011.11 1011.20 1011.22 1011.55 1011.89 1012.10 1012.51 1013.58 1013.98 1014.68 1013.38 1013.69 1014.40 1014.86 1014.72 1014.45 1014.47 1014.42
996.37 996.27 996.40 996.76 997.91 999.76 1000.37 1002.38 1001.18 1002.41 1002.84 1003.94 1004.92 1005.48 1005.69 1005.85 1005.95 1006.00 1006.14 1006.09 1005.86 1005.52 1005.53 1005.88 1006.70 1007.59 1008.21 1008.67 1009.27 1009.77 1010.22 1010.53 1010.65 1011.00 1011.15 1011.58 1011.85 1011.80 1012.41 1012.90 1013.21 1013.44 1013.59 1014.27 1014.71 1014.64 1014.34 1014.30 1014.52
Thickness
5837 5836 5839 5834 5783 5775 5782 5810 5840 5815 5828 5834 5846 5838 5813 5808 5780 5771 5819 5831 5826 5813 5802 5797 5793 5788 5784 5781 5777 5775 5772 5769 5767 5765 5763 5761 5758 5755 5752 5749 5749 5747 5746 5744 5743 5742 5741 5739 5738
5846 5845 5838 5824 5758 5731 5772 5833 5827 5836 5845 5853 5851 5840 5826 5811 5834 5825 5817 5831 5825 5813 5804 5796 5790 5787 5784 5780 5776 5772 5769 5766 5764 5763 5761 5760 5758 5754 5750 5748 5747 5747 5746 5745 5744 5742 5741 5739 5738
5847 5854 5818 5803 5741 5734 5768 5822 5832 5842 5856 5846 5837 5849 5834 5812 5830 5830 5833 5831 5825 5813 5806 5793 5788 5784 5780 5778 5775 5771 5765 5762 5760 5759 5759 5758 5757 5753 5749 5747 5747 5747 5746 5745 5743 5741 5739 5737 5737
5848 5833 5823 5801 5779 5763 5790 5828 5845 5840 5850 5853 5844 5814 5834 5843 5839 5841 5834 5828 5823 5814 5802 5789 5785 5780 5777 5774 5771 5768 5764 5760 5757 5757 5756 5755 5754 5751 5749 5748 5747 5746 5745 5744 5742 5741 5739 5737 5737
5852 5803 5780 5779 5806 5818 5814 5842 5847 5837 5841 5840 5838 5801 5815 5838 5845 5840 5829 5825 5818 5809 5796 5787 5782 5777 5774 5770 5767 5767 5762 5758 5755 5755 5756 5754 5752 5750 5749 5749 5747 5745 5745 5744 5742 5742 5741 5738 5736
5825 5836 5795 5790 5800 5824 5836 5844 5846 5839 5840 5843 5827 5805 5816 5839 5841 5832 5827 5819 5815 5806 5795 5783 5777 5775 5771 5769 5766 5763 5760 5758 5756 5755 5755 5753 5751 5750 5749 5749 5748 5745 5747 5746 5745 5745 5744 5741 5737
5824 5809 5796 5806 5803 5813 5827 5850 5841 5832 5833 5827 5839 5793 5788 5820 5832 5829 5824 5821 5813 5805 5795 5782 5777 5774 5770 5767 5766 5763 5758 5756 5755 5754 5754 5752 5751 5751 5750 5749 5749 5749 5748 5747 5748 5745 5745 5743 5740
5821 5783 5781 5772 5793 5797 5838 5844 5852 5844 5819 5844 5838 5793 5752 5806 5825 5820 5819 5814 5809 5801 5794 5785 5779 5775 5771 5767 5764 5760 5757 5755 5755 5755 5754 5751 5752 5751 5752 5749 5751 5751 5749 5751 5752 5751 5747 5744 5742
5807 5739 5748 5803 5807 5818 5840 5839 5856 5858 5833 5837 5840 5813 5813 5814 5822 5809 5809 5807 5800 5797 5793 5788 5781 5776 5771 5766 5762 5760 5758 5755 5755 5755 5753 5753 5751 5750 5751 5751 5753 5752 5756 5755 5756 5755 5753 5744 5750
5798 5754 5807 5830 5835 5830 5836 5840 5843 5838 5830 5827 5829 5826 5821 5823 5817 5807 5804 5798 5792 5789 5787 5787 5782 5778 5772 5769 5766 5762 5758 5755 5753 5752 5752 5753 5751 5750 5750 5753 5754 5759 5759 5760 5755 5755 5754 5751 5756
5837 5805 5826 5833 5841 5844 5840 5841 5849 5836 5817 5818 5814 5772 5808 5825 5816 5812 5805 5802 5794 5790 5786 5784 5780 5777 5774 5772 5767 5764 5758 5753 5751 5749 5750 5751 5750 5751 5752 5753 5758 5760 5764 5756 5760 5761 5756 5759 5763
5819 5836 5836 5838 5846 5843 5839 5849 5840 5840 5834 5836 5832 5818 5813 5816 5815 5808 5803 5800 5797 5793 5788 5786 5782 5776 5776 5774 5768 5763 5758 5753 5750 5749 5748 5749 5749 5749 5753 5756 5759 5766 5769 5758 5763 5762 5758 5766 5773
5828 5832 5842 5848 5848 5847 5850 5839 5837 5841 5850 5848 5831 5816 5812 5822 5813 5818 5811 5804 5798 5790 5787 5784 5785 5777 5773 5770 5766 5763 5758 5754 5752 5749 5748 5750 5752 5754 5755 5761 5766 5769 5771 5751 5743 5763 5761 5770 5776
5834 5837 5842 5850 5848 5851 5837 5833 5831 5844 5854 5844 5831 5827 5826 5824 5814 5811 5803 5801 5792 5794 5789 5785 5783 5778 5772 5769 5767 5763 5760 5757 5753 5750 5750 5751 5753 5757 5762 5765 5773 5767 5771 5755 5758 5776 5769 5778 5773
5838 5822 5829 5841 5849 5845 5845 5795 5800 5850 5854 5842 5833 5825 5814 5819 5817 5809 5804 5801 5797 5793 5789 5785 5783 5780 5772 5771 5769 5765 5760 5759 5753 5752 5751 5752 5754 5759 5763 5769 5774 5766 5763 5764 5773 5766 5769 5770 5771
5825 5814 5791 5829 5850 5853 5846 5780 5832 5859 5845 5839 5823 5794 5809 5820 5817 5816 5812 5806 5800 5795 5787 5784 5784 5781 5775 5773 5769 5765 5761 5760 5754 5750 5752 5753 5757 5760 5765 5771 5774 5772 5768 5765 5775 5777 5768 5764 5777
5808 5768 5801 5832 5858 5851 5843 5824 5855 5859 5848 5842 5820 5805 5818 5816 5811 5818 5814 5809 5805 5799 5792 5787 5785 5779 5779 5773 5768 5764 5762 5759 5754 5751 5750 5753 5757 5762 5769 5773 5772 5776 5771 5772 5764 5771 5772 5768 5767
5782 5779 5806 5828 5848 5850 5837 5841 5850 5855 5848 5842 5824 5820 5811 5812 5814 5814 5814 5815 5805 5799 5791 5787 5784 5781 5778 5771 5768 5765 5762 5759 5755 5753 5753 5755 5759 5764 5767 5772 5769 5773 5780 5775 5770 5781 5781 5764 5772
5814 5810 5825 5843 5854 5842 5833 5826 5838 5853 5844 5834 5824 5812 5800 5804 5819 5823 5816 5815 5805 5801 5793 5787 5783 5780 5778 5772 5768 5763 5761 5760 5757 5758 5757 5758 5761 5764 5766 5766 5770 5770 5778 5780 5780 5779 5770 5782 5790
5827 5825 5824 5846 5855 5841 5824 5820 5809 5842 5844 5836 5804 5759 5746 5778 5808 5817 5814 5814 5808 5802 5798 5792 5787 5785 5781 5777 5772 5769 5769 5765 5762 5763 5762 5762 5762 5763 5764 5772 5774 5779 5776 5773 5776 5777 5767 5767 5785
5830 5828 5828 5828 5835 5822 5798 5769 5764 5796 5837 5841 5834 5799 5788 5783 5805 5813 5816 5816 5814 5807 5802 5794 5790 5785 5781 5776 5772 5770 5772 5767 5764 5763 5762 5763 5766 5766 5774 5771 5777 5779 5785 5777 5778 5775 5771 5764 5779
5813 5849 5841 5832 5824 5776 5803 5692 5718 5752 5822 5832 5832 5814 5787 5817 5817 5819 5820 5814 5818 5814 5809 5801 5795 5789 5782 5777 5772 5771 5769 5765 5769 5767 5769 5768 5770 5770 5773 5779 5780 5786 5778 5762 5766 5774 5776 5772 5766
5831 5856 5843 5838 5826 5820 5758 5707 5752 5775 5818 5827 5836 5833 5820 5830 5828 5819 5806 5776 5815 5819 5811 5805 5798 5789 5784 5779 5775 5771 5770 5772 5773 5775 5773 5774 5776 5777 5774 5775 5777 5779 5782 5784 5790 5787 5779 5773 5774
5851 5841 5842 5842 5834 5799 5824 5794 5762 5814 5825 5833 5842 5842 5839 5832 5833 5830 5819 5808 5818 5822 5816 5808 5797 5789 5787 5781 5777 5774 5773 5770 5770 5771 5773 5774 5776 5778 5780 5779 5778 5780 5785 5790 5793 5794 5789 5780 5786
5843 5827 5804 5797 5794 5798 5842 5813 5807 5833 5844 5844 5842 5840 5841 5836 5831 5832 5829 5826 5823 5815 5810 5807 5800 5790 5789 5785 5781 5778 5776 5774 5772 5773 5775 5778 5776 5776 5778 5779 5779 5780 5783 5784 5788 5791 5791 5788 5782
5841 5841 5816 5768 5730 5797 5827 5794 5807 5844 5851 5853 5852 5849 5846 5839 5836 5837 5832 5828 5822 5817 5814 5811 5802 5795 5791 5788 5784 5782 5781 5779 5779 5781 5778 5777 5780 5778 5782 5780 5778 5777 5778 5780 5783 5787 5789 5789 5788
5845 5831 5865 5837 5806 5814 5797 5760 5829 5836 5836 5838 5837 5839 5836 5837 5841 5838 5839 5835 5829 5823 5817 5812 5805 5799 5795 5792 5788 5783 5782 5783 5786 5786 5784 5780 5779 5778 5777 5779 5782 5782 5778 5775 5780 5782 5783 5785 5786
5848 5863 5834 5854 5778 5768 5787 5775 5761 5810 5819 5826 5825 5825 5827 5829 5831 5834 5836 5837 5837 5834 5827 5820 5813 5803 5799 5797 5793 5788 5786 5785 5787 5787 5782 5781 5778 5776 5769 5766 5766 5778 5779 5778 5774 5778 5782 5781 5782
5845 5840 5848 5859 5816 5778 5758 5788 5821 5817 5818 5812 5815 5819 5820 5819 5821 5824 5828 5835 5839 5841 5835 5824 5816 5809 5802 5799 5796 5792 5789 5788 5788 5788 5785 5781 5779 5778 5764 5752 5761 5779 5777 5774 5770 5774 5779 5778 5779
5864 5852 5854 5826 5817 5805 5807 5766 5826 5821 5818 5812 5805 5806 5810 5812 5813 5816 5816 5819 5821 5825 5827 5824 5820 5812 5809 5805 5800 5795 5792 5790 5789 5787 5786 5781 5776 5781 5776 5777 5774 5775 5774 5770 5766 5769 5777 5777 5775